Location: Asheville, NC
(35.6000°N, 82.5500°W)
Time: 05:27:07
(UTC-05:00)

KKS-1 - Pass Details

Date: 15 February 2018
Orbit: 638 x 650 km, 98.3° (Epoch: 17 February)

Event Time Altitude Azimuth Distance (km) Brightness Sun altitude
Rises 03:57:41 0° 117° (ESE) 2,933 ? -40.9°
Reaches altitude 10° 04:01:14 10° 86° (E) 2,032 ? -40.2°
Enters shadow 04:02:39 12° 68° (ENE) 1,911 ? -39.9°
